| time (UTC) | temp C | wind direction | speed KPH | gust KPH | rain 1hr cm | rain 24hr cm | rain mn cm | humidity % | barometer mb |
| 20260507054301 | 25 | 66 | 1.6 | 11.3 | 0.00 | 0.00 | 0.00 | 83 | 1001.1 |
| 20260507053803 | 25 | 68 | 3.2 | 11.3 | 0.00 | 0.00 | 0.00 | 83 | 1001.1 |
| 20260507053259 | 25 | 69 | 1.6 | 11.3 | 0.00 | 0.00 | 0.00 | 83 | 1001.2 |
| 20260507052804 | 25 | 66 | 4.8 | 11.3 | 0.00 | 0.00 | 0.00 | 83 | 1001.0 |
| 20260507052300 | 25 | 78 | 1.6 | 9.7 | 0.00 | 0.00 | 0.00 | 83 | 1001.2 |
| 20260507051803 | 25 | 78 | 3.2 | 11.3 | 0.00 | 0.00 | 0.00 | 83 | 1001.2 |
| 20260507051259 | 25 | 78 | 3.2 | 11.3 | 0.00 | 0.00 | 0.00 | 83 | 1001.2 |
| 20260507050804 | 25 | 79 | 3.2 | 9.7 | 0.00 | 0.00 | 0.00 | 83 | 1001.3 |
| 20260507050259 | 25 | 80 | 1.6 | 11.3 | 0.00 | 0.00 | 0.00 | 83 | 1001.3 |
| 20260507045802 | 25 | 80 | 4.8 | 11.3 | 0.00 | 0.00 | 0.00 | 83 | 1001.4 |
| 20260507045259 | 25 | 80 | 3.2 | 9.7 | 0.00 | 0.00 | 0.00 | 83 | 1001.4 |
| 20260507044802 | 25 | 85 | 3.2 | 11.3 | 0.00 | 0.00 | 0.00 | 83 | 1001.5 |
| 20260507044259 | 25 | 87 | 4.8 | 11.3 | 0.00 | 0.00 | 0.00 | 83 | 1001.7 |
| 20260507043801 | 25 | 86 | 1.6 | 16.1 | 0.00 | 0.00 | 0.00 | 83 | 1001.6 |
| 20260507042802 | 25 | 82 | 0.0 | 14.5 | 0.00 | 0.00 | 0.00 | 83 | 1001.7 |
| 20260507042259 | 25 | 87 | 4.8 | 14.5 | 0.00 | 0.00 | 0.00 | 82 | 1001.8 |
| 20260507041800 | 26 | 92 | 0.0 | 14.5 | 0.00 | 0.00 | 0.00 | 83 | 1001.7 |
| 20260507040800 | 26 | 80 | 3.2 | 17.7 | 0.00 | 0.00 | 0.00 | 82 | 1001.9 |
| 20260507040258 | 26 | 82 | 6.4 | 17.7 | 0.00 | 0.00 | 0.00 | 82 | 1001.8 |
| 20260507035800 | 26 | 92 | 4.8 | 14.5 | 0.00 | 0.00 | 0.00 | 82 | 1001.8 |
| 20260507035258 | 26 | 93 | 3.2 | 14.5 | 0.00 | 0.00 | 0.00 | 82 | 1001.8 |
| 20260507034800 | 26 | 56 | 4.8 | 14.5 | 0.00 | 0.00 | 0.00 | 82 | 1001.8 |
| 20260507034258 | 26 | 93 | 3.2 | 14.5 | 0.00 | 0.00 | 0.00 | 82 | 1001.8 |
| 20260507033759 | 26 | 93 | 3.2 | 14.5 | 0.00 | 0.00 | 0.00 | 82 | 1001.8 |
| 20260507033256 | 26 | 78 | 3.2 | 11.3 | 0.00 | 0.00 | 0.00 | 82 | 1001.8 |
| 20260507032800 | 26 | 76 | 1.6 | 14.5 | 0.00 | 0.00 | 0.00 | 82 | 1001.8 |
| 20260507032256 | 26 | 73 | 3.2 | 14.5 | 0.00 | 0.00 | 0.00 | 82 | 1001.9 |
| 20260507031257 | 26 | 85 | 0.0 | 9.7 | 0.00 | 0.00 | 0.00 | 81 | 1001.7 |
| 20260507030258 | 26 | 71 | 3.2 | 11.3 | 0.00 | 0.00 | 0.00 | 81 | 1001.7 |
| 20260507025759 | 26 | 76 | 1.6 | 16.1 | 0.00 | 0.00 | 0.00 | 81 | 1001.7 |
| 20260507025256 | 26 | 80 | 8.0 | 17.7 | 0.00 | 0.00 | 0.00 | 81 | 1001.8 |
| 20260507024800 | 26 | 69 | 6.4 | 17.7 | 0.00 | 0.00 | 0.00 | 81 | 1001.8 |
| 20260507024256 | 26 | 69 | 4.8 | 16.1 | 0.00 | 0.00 | 0.00 | 80 | 1001.8 |
| 20260507023759 | 26 | 71 | 6.4 | 16.1 | 0.00 | 0.00 | 0.00 | 80 | 1001.8 |
| 20260507023256 | 26 | 41 | 8.0 | 16.1 | 0.00 | 0.00 | 0.00 | 80 | 1001.8 |
| 20260507022759 | 26 | 100 | 3.2 | 14.5 | 0.00 | 0.00 | 0.00 | 80 | 1001.8 |
| 20260507022255 | 26 | 69 | 3.2 | 19.3 | 0.00 | 0.00 | 0.00 | 80 | 1001.7 |
| 20260507020758 | 26 | 89 | 6.4 | 19.3 | 0.00 | 0.00 | 0.00 | 79 | 1001.6 |
| 20260507020256 | 26 | 76 | 6.4 | 19.3 | 0.00 | 0.00 | 0.00 | 78 | 1001.6 |
| 20260507015256 | 27 | 86 | 3.2 | 17.7 | 0.00 | 0.00 | 0.00 | 77 | 1001.6 |
| 20260507014758 | 27 | 68 | 3.2 | 16.1 | 0.00 | 0.00 | 0.00 | 77 | 1001.6 |
| 20260507013758 | 27 | 93 | 3.2 | 19.3 | 0.00 | 0.00 | 0.00 | 76 | 1001.4 |
| 20260507012755 | 27 | 59 | 3.2 | 22.5 | 0.00 | 0.00 | 0.00 | 75 | 1001.3 |
| 20260507012254 | 27 | 85 | 6.4 | 16.1 | 0.00 | 0.00 | 0.00 | 75 | 1001.2 |
| 20260507011254 | 27 | 65 | 8.0 | 17.7 | 0.00 | 0.00 | 0.00 | 73 | 1001.1 |
| 20260507010757 | 27 | 83 | 3.2 | 17.7 | 0.00 | 0.00 | 0.00 | 73 | 1001.0 |
| 20260507010254 | 27 | 66 | 3.2 | 14.5 | 0.00 | 0.00 | 0.00 | 73 | 1001.0 |
| 20260507005757 | 27 | 65 | 3.2 | 16.1 | 0.00 | 0.00 | 0.00 | 73 | 1001.0 |
| 20260507005252 | 27 | 65 | 4.8 | 17.7 | 0.00 | 0.00 | 0.00 | 74 | 1000.9 |
| 20260507004755 | 28 | 85 | 6.4 | 17.7 | 0.00 | 0.00 | 0.00 | 74 | 1000.8 |
| 20260507004252 | 28 | 66 | 6.4 | 17.7 | 0.00 | 0.00 | 0.00 | 75 | 1000.7 |
| 20260507003754 | 28 | 76 | 4.8 | 16.1 | 0.00 | 0.00 | 0.00 | 76 | 1000.7 |
| 20260507003252 | 28 | 75 | 4.8 | 17.7 | 0.00 | 0.00 | 0.00 | 76 | 1000.7 |
| 20260507002253 | 28 | 97 | 6.4 | 17.7 | 0.00 | 0.00 | 0.00 | 76 | 1000.5 |
| 20260507001757 | 28 | 94 | 6.4 | 17.7 | 0.00 | 0.00 | 0.00 | 76 | 1000.4 |
| 20260507001253 | 28 | 96 | 8.0 | 22.5 | 0.00 | 0.00 | 0.00 | 76 | 1000.3 |
| 20260507000753 | 28 | 97 | 9.7 | 22.5 | 0.00 | 0.00 | 0.00 | 76 | 1000.2 |
| 20260507000251 | 28 | 92 | 12.9 | 22.5 | 0.00 | 0.00 | 0.00 | 75 | 1000.2 |
| 20260506235754 | 28 | 86 | 9.7 | 22.5 | 0.00 | 0.00 | 0.00 | 74 | 1000.2 |
| 20260506235254 | 28 | 65 | 6.4 | 20.9 | 0.00 | 0.00 | 0.00 | 73 | 1000.0 |
| 20260506234755 | 28 | 85 | 4.8 | 19.3 | 0.00 | 0.00 | 0.00 | 73 | 999.9 |
| 20260506234253 | 28 | 89 | 6.4 | 19.3 | 0.00 | 0.00 | 0.00 | 72 | 1000.0 |
| 20260506233755 | 28 | 78 | 4.8 | 19.3 | 0.00 | 0.00 | 0.00 | 71 | 999.9 |
| 20260506233252 | 28 | 75 | 1.6 | 17.7 | 0.00 | 0.00 | 0.00 | 71 | 999.8 |
| 20260506232756 | 29 | 79 | 4.8 | 16.1 | 0.00 | 0.00 | 0.00 | 71 | 999.8 |
| 20260506232252 | 29 | 86 | 8.0 | 16.1 | 0.00 | 0.00 | 0.00 | 70 | 999.7 |
| 20260506231755 | 29 | 75 | 0.0 | 19.3 | 0.00 | 0.00 | 0.00 | 70 | 999.6 |
| 20260506231255 | 29 | 92 | 4.8 | 19.3 | 0.00 | 0.00 | 0.00 | 70 | 999.6 |
| 20260506230754 | 29 | 62 | 6.4 | 16.1 | 0.00 | 0.00 | 0.00 | 69 | 999.6 |
| 20260506230304 | 29 | 63 | 6.4 | 16.1 | 0.00 | 0.00 | 0.00 | 69 | 999.4 |
| 20260506225755 | 29 | 83 | 6.4 | 17.7 | 0.00 | 0.00 | 0.00 | 69 | 999.3 |
| 20260506225251 | 29 | 89 | 6.4 | 22.5 | 0.00 | 0.00 | 0.00 | 68 | 999.3 |
| 20260506224754 | 29 | 61 | 9.7 | 25.7 | 0.00 | 0.00 | 0.00 | 68 | 999.3 |
| 20260506224251 | 30 | 58 | 8.0 | 27.4 | 0.00 | 0.00 | 0.00 | 67 | 999.3 |
| 20260506223250 | 30 | 75 | 6.4 | 22.5 | 0.00 | 0.00 | 0.00 | 66 | 999.3 |
| 20260506222754 | 30 | 71 | 8.0 | 25.7 | 0.00 | 0.00 | 0.00 | 66 | 999.3 |
| 20260506222250 | 30 | 59 | 11.3 | 25.7 | 0.00 | 0.00 | 0.00 | 65 | 999.2 |
| 20260506221756 | 30 | 61 | 3.2 | 19.3 | 0.00 | 0.00 | 0.00 | 65 | 999.1 |
| 20260506221250 | 30 | 63 | 9.7 | 22.5 | 0.00 | 0.00 | 0.00 | 65 | 999.0 |
| 20260506220753 | 30 | 55 | 11.3 | 27.4 | 0.00 | 0.00 | 0.00 | 65 | 998.9 |
| 20260506220251 | 30 | 55 | 9.7 | 27.4 | 0.00 | 0.00 | 0.00 | 64 | 998.9 |
| 20260506215754 | 30 | 65 | 8.0 | 20.9 | 0.00 | 0.00 | 0.00 | 65 | 998.9 |
| 20260506214249 | 31 | 56 | 9.7 | 27.4 | 0.00 | 0.00 | 0.00 | 65 | 998.7 |
| 20260506213753 | 31 | 48 | 8.0 | 20.9 | 0.00 | 0.00 | 0.00 | 65 | 998.6 |
| 20260506212752 | 31 | 62 | 11.3 | 20.9 | 0.00 | 0.00 | 0.00 | 65 | 998.7 |
| 20260506212249 | 31 | 45 | 8.0 | 20.9 | 0.00 | 0.00 | 0.00 | 65 | 998.6 |
| 20260506211753 | 31 | 49 | 8.0 | 25.7 | 0.00 | 0.00 | 0.00 | 64 | 998.5 |
| 20260506211249 | 31 | 55 | 14.5 | 25.7 | 0.00 | 0.00 | 0.00 | 64 | 998.4 |
| 20260506210752 | 31 | 65 | 12.9 | 25.7 | 0.00 | 0.00 | 0.00 | 64 | 998.4 |
| 20260506210249 | 31 | 72 | 16.1 | 25.7 | 0.00 | 0.00 | 0.00 | 63 | 998.4 |
| 20260506205752 | 31 | 68 | 9.7 | 29.0 | 0.00 | 0.00 | 0.00 | 64 | 998.4 |
| 20260506204752 | 32 | 38 | 17.7 | 27.4 | 0.00 | 0.00 | 0.00 | 64 | 998.3 |
| 20260506204249 | 32 | 87 | 8.0 | 32.2 | 0.00 | 0.00 | 0.00 | 64 | 998.4 |
| 20260506203752 | 32 | 55 | 16.1 | 32.2 | 0.00 | 0.00 | 0.00 | 63 | 998.4 |
| 20260506202751 | 32 | 59 | 14.5 | 25.7 | 0.00 | 0.00 | 0.00 | 61 | 998.5 |
| 20260506202248 | 32 | 61 | 12.9 | 25.7 | 0.00 | 0.00 | 0.00 | 61 | 998.4 |
| 20260506201751 | 32 | 28 | 9.7 | 32.2 | 0.00 | 0.00 | 0.00 | 61 | 998.2 |
| 20260506201248 | 32 | 55 | 14.5 | 33.8 | 0.00 | 0.00 | 0.00 | 60 | 998.2 |
| 20260506200752 | 32 | 52 | 16.1 | 33.8 | 0.00 | 0.00 | 0.00 | 59 | 998.4 |
| 20260506200247 | 33 | 38 | 16.1 | 32.2 | 0.00 | 0.00 | 0.00 | 59 | 998.2 |
| 20260506195758 | 33 | 31 | 12.9 | 27.4 | 0.00 | 0.00 | 0.00 | 56 | 998.1 |
| 20260506195249 | 33 | 82 | 12.9 | 25.7 | 0.00 | 0.00 | 0.00 | 51 | 998.3 |
| 20260506194247 | 33 | 103 | 6.4 | 16.1 | 0.00 | 0.00 | 0.00 | 51 | 998.3 |
| 20260506193751 | 33 | 73 | 6.4 | 16.1 | 0.00 | 0.00 | 0.00 | 51 | 998.4 |
| 20260506193247 | 33 | 56 | 6.4 | 14.5 | 0.00 | 0.00 | 0.00 | 52 | 998.3 |
| 20260506192750 | 33 | 76 | 3.2 | 14.5 | 0.00 | 0.00 | 0.00 | 53 | 998.3 |
| 20260506192247 | 33 | 73 | 3.2 | 17.7 | 0.00 | 0.00 | 0.00 | 53 | 998.3 |
| 20260506191752 | 33 | 54 | 6.4 | 19.3 | 0.00 | 0.00 | 0.00 | 54 | 998.4 |
| 20260506191247 | 32 | 41 | 11.3 | 19.3 | 0.00 | 0.00 | 0.00 | 54 | 998.5 |
| 20260506190749 | 32 | 96 | 9.7 | 20.9 | 0.00 | 0.00 | 0.00 | 58 | 998.6 |
| 20260506190246 | 32 | 41 | 11.3 | 24.1 | 0.00 | 0.00 | 0.00 | 58 | 998.5 |
| 20260506185749 | 32 | 44 | 9.7 | 24.1 | 0.00 | 0.00 | 0.00 | 58 | 998.6 |
| 20260506185249 | 32 | 21 | 8.0 | 17.7 | 0.00 | 0.00 | 0.00 | 58 | 998.7 |
| 20260506184752 | 32 | 47 | 8.0 | 27.4 | 0.00 | 0.00 | 0.00 | 57 | 998.8 |
| 20260506183751 | 33 | 59 | 6.4 | 14.5 | 0.00 | 0.00 | 0.00 | 53 | 999.0 |
| 20260506183248 | 33 | 102 | 4.8 | 9.7 | 0.00 | 0.00 | 0.00 | 51 | 998.9 |
| 20260506182751 | 33 | 133 | 4.8 | 19.3 | 0.00 | 0.00 | 0.00 | 51 | 998.9 |
| 20260506181748 | 32 | 51 | 4.8 | 19.3 | 0.00 | 0.00 | 0.00 | 58 | 999.1 |
| 20260506181247 | 32 | 51 | 4.8 | 20.9 | 0.00 | 0.00 | 0.00 | 58 | 999.3 |
| 20260506180757 | 32 | 44 | 6.4 | 20.9 | 0.00 | 0.00 | 0.00 | 58 | 999.4 |
| 20260506180247 | 32 | 21 | 4.8 | 24.1 | 0.00 | 0.00 | 0.00 | 58 | 999.4 |
| 20260506175750 | 33 | 87 | 9.7 | 24.1 | 0.00 | 0.00 | 0.00 | 57 | 999.4 |
| 20260506175247 | 33 | 54 | 4.8 | 17.7 | 0.00 | 0.00 | 0.00 | 57 | 999.5 |
| 20260506174750 | 33 | 51 | 1.6 | 17.7 | 0.00 | 0.00 | 0.00 | 56 | 999.7 |
| 20260506174246 | 33 | 30 | 6.4 | 19.3 | 0.00 | 0.00 | 0.00 | 51 | 999.6 |
| 20260506173750 | 33 | 62 | 1.6 | 19.3 | 0.00 | 0.00 | 0.00 | 54 | 999.7 |
| 20260506173246 | 33 | 38 | 8.0 | 16.1 | 0.00 | 0.00 | 0.00 | 52 | 999.8 |
| 20260506172748 | 33 | 61 | 0.0 | 22.5 | 0.00 | 0.00 | 0.00 | 53 | 999.9 |
| 20260506172246 | 33 | 78 | 6.4 | 22.5 | 0.00 | 0.00 | 0.00 | 49 | 1000.0 |
| 20260506171749 | 34 | 78 | 3.2 | 20.9 | 0.00 | 0.00 | 0.00 | 49 | 1000.0 |
| 20260506171246 | 33 | 120 | 6.4 | 20.9 | 0.00 | 0.00 | 0.00 | 49 | 1000.1 |
| 20260506170246 | 33 | 125 | 4.8 | 16.1 | 0.00 | 0.00 | 0.00 | 50 | 1000.2 |
| 20260506165753 | 33 | 149 | 1.6 | 19.3 | 0.00 | 0.00 | 0.00 | 51 | 1000.0 |
| 20260506165246 | 33 | 131 | 6.4 | 19.3 | 0.00 | 0.00 | 0.00 | 51 | 1000.4 |
| 20260506164749 | 33 | 134 | 8.0 | 17.7 | 0.00 | 0.00 | 0.00 | 52 | 1000.3 |
| 20260506163748 | 32 | 104 | 6.4 | 19.3 | 0.00 | 0.00 | 0.00 | 53 | 1000.5 |
| 20260506162801 | 32 | 110 | 4.8 | 19.3 | 0.00 | 0.00 | 0.00 | 53 | 1000.9 |
| 20260506162244 | 33 | 92 | 6.4 | 19.3 | 0.00 | 0.00 | 0.00 | 52 | 1001.0 |
| 20260506161801 | 33 | 76 | 4.8 | 19.3 | 0.00 | 0.00 | 0.00 | 53 | 1001.2 |
| 20260506160755 | 33 | 89 | 4.8 | 22.5 | 0.00 | 0.00 | 0.00 | 52 | 1001.1 |
| 20260506160245 | 32 | 47 | 9.7 | 22.5 | 0.00 | 0.00 | 0.00 | 53 | 1001.4 |
| 20260506155747 | 32 | 140 | 6.4 | 22.5 | 0.00 | 0.00 | 0.00 | 53 | 1001.2 |
| 20260506154745 | 32 | 99 | 11.3 | 27.4 | 0.00 | 0.00 | 0.00 | 55 | 1001.6 |
| 20260506154242 | 32 | 113 | 11.3 | 22.5 | 0.00 | 0.00 | 0.00 | 55 | 1001.7 |
| 20260506153745 | 31 | 110 | 11.3 | 22.5 | 0.00 | 0.00 | 0.00 | 56 | 1001.6 |
| 20260506153241 | 31 | 137 | 4.8 | 19.3 | 0.00 | 0.00 | 0.00 | 59 | 1001.7 |
| 20260506152748 | 31 | 128 | 3.2 | 19.3 | 0.00 | 0.00 | 0.00 | 58 | 1001.9 |
| 20260506151241 | 31 | 168 | 6.4 | 20.9 | 0.00 | 0.08 | 0.00 | 58 | 1002.2 |
| 20260506150744 | 31 | 120 | 1.6 | 17.7 | 0.00 | 0.08 | 0.00 | 58 | 1002.3 |
| 20260506150241 | 31 | 116 | 1.6 | 14.5 | 0.00 | 0.08 | 0.00 | 58 | 1002.4 |
| 20260506145744 | 31 | 102 | 8.0 | 19.3 | 0.00 | 0.08 | 0.00 | 57 | 1002.5 |
| 20260506145240 | 32 | 87 | 8.0 | 22.5 | 0.00 | 0.08 | 0.00 | 58 | 1002.5 |
| 20260506144744 | 31 | 68 | 6.4 | 24.1 | 0.00 | 0.08 | 0.00 | 58 | 1002.4 |
| 20260506144239 | 31 | 124 | 11.3 | 24.1 | 0.00 | 0.08 | 0.00 | 59 | 1002.4 |
| 20260506143239 | 31 | 111 | 6.4 | 16.1 | 0.00 | 0.08 | 0.00 | 61 | 1002.7 |
| 20260506141744 | 31 | 72 | 4.8 | 19.3 | 0.00 | 0.08 | 0.00 | 62 | 1002.8 |
| 20260506141239 | 31 | 127 | 8.0 | 19.3 | 0.00 | 0.08 | 0.00 | 62 | 1002.8 |
| 20260506140239 | 30 | 100 | 4.8 | 17.7 | 0.00 | 0.08 | 0.00 | 64 | 1002.7 |
| 20260506135741 | 30 | 79 | 9.7 | 25.7 | 0.00 | 0.08 | 0.00 | 64 | 1002.9 |
| 20260506135238 | 30 | 124 | 12.9 | 25.7 | 0.00 | 0.08 | 0.00 | 65 | 1002.7 |
| 20260506134741 | 30 | 80 | 8.0 | 17.7 | 0.00 | 0.08 | 0.00 | 67 | 1003.0 |
| 20260506133743 | 30 | 106 | 3.2 | 16.1 | 0.00 | 0.08 | 0.00 | 69 | 1003.0 |
| 20260506133239 | 29 | 87 | 6.4 | 16.1 | 0.00 | 0.08 | 0.00 | 69 | 1003.0 |
| 20260506132742 | 29 | 124 | 8.0 | 17.7 | 0.00 | 0.08 | 0.00 | 70 | 1003.0 |
| 20260506132238 | 29 | 109 | 8.0 | 20.9 | 0.00 | 0.08 | 0.00 | 71 | 1002.9 |
| 20260506131237 | 29 | 56 | 6.4 | 19.3 | 0.00 | 0.08 | 0.00 | 72 | 1003.1 |
| 20260506130741 | 28 | 110 | 4.8 | 11.3 | 0.00 | 0.08 | 0.00 | 74 | 1003.0 |
| 20260506130238 | 28 | 68 | 1.6 | 16.1 | 0.00 | 0.08 | 0.00 | 74 | 1003.0 |
| 20260506125744 | 28 | 72 | 9.7 | 16.1 | 0.00 | 0.08 | 0.00 | 74 | 1002.9 |
| 20260506125238 | 28 | 100 | 3.2 | 14.5 | 0.00 | 0.08 | 0.00 | 75 | 1003.0 |
| 20260506124742 | 28 | 79 | 6.4 | 16.1 | 0.00 | 0.08 | 0.00 | 75 | 1003.0 |
| 20260506124238 | 28 | 113 | 6.4 | 16.1 | 0.00 | 0.08 | 0.00 | 76 | 1002.9 |
| 20260506123742 | 27 | 97 | 4.8 | 14.5 | 0.00 | 0.08 | 0.00 | 76 | 1002.8 |
| 20260506123238 | 27 | 93 | 6.4 | 14.5 | 0.00 | 0.08 | 0.00 | 76 | 1002.9 |
| 20260506122741 | 27 | 127 | 3.2 | 17.7 | 0.00 | 0.08 | 0.00 | 77 | 1002.8 |
| 20260506122238 | 27 | 103 | 4.8 | 17.7 | 0.00 | 0.08 | 0.00 | 77 | 1002.7 |
| 20260506121741 | 27 | 76 | 9.7 | 16.1 | 0.00 | 0.08 | 0.00 | 77 | 1002.7 |
| 20260506120740 | 27 | 69 | 1.6 | 17.7 | 0.00 | 0.08 | 0.00 | 81 | 1002.6 |
| 20260506115237 | 27 | 86 | 3.2 | 9.7 | 0.00 | 0.08 | 0.00 | 81 | 1002.5 |
| 20260506114237 | 26 | 79 | 3.2 | 14.5 | 0.00 | 0.08 | 0.00 | 82 | 1002.4 |
| 20260506113740 | 26 | 96 | 8.0 | 14.5 | 0.00 | 0.08 | 0.00 | 83 | 1002.2 |
| 20260506113237 | 26 | 76 | 3.2 | 14.5 | 0.00 | 0.08 | 0.00 | 83 | 1002.3 |
| 20260506112739 | 26 | 68 | 1.6 | 14.5 | 0.00 | 0.08 | 0.00 | 83 | 1002.2 |
| 20260506112238 | 26 | 69 | 4.8 | 14.5 | 0.00 | 0.08 | 0.00 | 84 | 1002.1 |
| 20260506111739 | 26 | 75 | 3.2 | 11.3 | 0.00 | 0.08 | 0.00 | 84 | 1002.0 |
| 20260506111236 | 25 | 75 | 3.2 | 11.3 | 0.00 | 0.08 | 0.00 | 84 | 1001.9 |
| 20260506110739 | 25 | 75 | 4.8 | 11.3 | 0.00 | 0.08 | 0.00 | 84 | 1001.9 |
| 20260506110236 | 25 | 76 | 3.2 | 9.7 | 0.00 | 0.08 | 0.00 | 84 | 1001.9 |
| 20260506105739 | 25 | 76 | 1.6 | 9.7 | 0.00 | 0.08 | 0.00 | 84 | 1001.7 |
| 20260506105236 | 25 | 76 | 1.6 | 8.0 | 0.00 | 0.08 | 0.00 | 84 | 1001.7 |
| 20260506104739 | 25 | 76 | 3.2 | 8.0 | 0.00 | 0.08 | 0.00 | 84 | 1001.6 |
| 20260506104235 | 25 | 76 | 3.2 | 8.0 | 0.00 | 0.08 | 0.00 | 84 | 1001.6 |
| 20260506103738 | 25 | 76 | 3.2 | 8.0 | 0.00 | 0.08 | 0.00 | 84 | 1001.6 |
| 20260506103235 | 25 | 76 | 0.0 | 4.8 | 0.00 | 0.08 | 0.00 | 84 | 1001.6 |
| 20260506102738 | 25 | 76 | 0.0 | 4.8 | 0.00 | 0.08 | 0.00 | 84 | 1001.6 |
| 20260506102234 | 25 | 76 | 0.0 | 6.4 | 0.00 | 0.08 | 0.00 | 84 | 1001.5 |
| 20260506101738 | 25 | 78 | 1.6 | 6.4 | 0.00 | 0.08 | 0.00 | 84 | 1001.4 |
| 20260506101235 | 24 | 76 | 0.0 | 6.4 | 0.00 | 0.08 | 0.00 | 84 | 1001.3 |
| 20260506100739 | 24 | 76 | 0.0 | 6.4 | 0.00 | 0.08 | 0.00 | 84 | 1001.4 |
| 20260506100238 | 25 | 76 | 1.6 | 8.0 | 0.00 | 0.08 | 0.00 | 84 | 1001.4 |
| 20260506095738 | 25 | 76 | 1.6 | 8.0 | 0.00 | 0.08 | 0.00 | 84 | 1001.4 |
| 20260506095236 | 25 | 78 | 0.0 | 1.6 | 0.00 | 0.08 | 0.00 | 84 | 1001.4 |
| 20260506093737 | 25 | 78 | 0.0 | 4.8 | 0.00 | 0.08 | 0.00 | 84 | 1001.4 |
| 20260506093233 | 25 | 78 | 0.0 | 4.8 | 0.00 | 0.08 | 0.00 | 84 | 1001.3 |
| 20260506092737 | 25 | 78 | 0.0 | 6.4 | 0.00 | 0.08 | 0.00 | 84 | 1001.2 |
| 20260506092235 | 25 | 78 | 1.6 | 6.4 | 0.00 | 0.08 | 0.00 | 84 | 1001.2 |
| 20260506091737 | 25 | 78 | 0.0 | 4.8 | 0.00 | 0.08 | 0.00 | 84 | 1001.2 |
| 20260506091234 | 25 | 78 | 0.0 | 6.4 | 0.00 | 0.08 | 0.00 | 84 | 1001.1 |
| 20260506085736 | 25 | 78 | 0.0 | 8.0 | 0.00 | 0.08 | 0.00 | 84 | 1001.0 |
| 20260506085233 | 25 | 78 | 1.6 | 6.4 | 0.00 | 0.08 | 0.00 | 84 | 1000.9 |
| 20260506084736 | 25 | 78 | 3.2 | 8.0 | 0.00 | 0.08 | 0.00 | 84 | 1000.9 |
| 20260506084233 | 25 | 78 | 3.2 | 8.0 | 0.00 | 0.08 | 0.00 | 84 | 1000.8 |
| 20260506083736 | 25 | 78 | 0.0 | 8.0 | 0.00 | 0.08 | 0.00 | 84 | 1000.7 |
| 20260506083233 | 25 | 78 | 0.0 | 9.7 | 0.00 | 0.08 | 0.00 | 84 | 1000.8 |
| 20260506082736 | 25 | 78 | 4.8 | 9.7 | 0.00 | 0.08 | 0.00 | 84 | 1000.8 |
| 20260506082232 | 25 | 78 | 0.0 | 1.6 | 0.00 | 0.08 | 0.00 | 84 | 1000.7 |
| 20260506081735 | 25 | 78 | 0.0 | 8.0 | 0.00 | 0.08 | 0.00 | 84 | 1000.6 |
| 20260506081232 | 25 | 78 | 0.0 | 9.7 | 0.00 | 0.08 | 0.00 | 84 | 1000.6 |
| 20260506080748 | 25 | 78 | 3.2 | 9.7 | 0.00 | 0.08 | 0.00 | 84 | 1000.7 |
| 20260506080231 | 25 | 78 | 0.0 | 11.3 | 0.00 | 0.08 | 0.00 | 84 | 1000.5 |
| 20260506073231 | 25 | 78 | 0.0 | 8.0 | 0.00 | 0.08 | 0.00 | 84 | 1000.7 |
| 20260506072734 | 25 | 78 | 1.6 | 8.0 | 0.00 | 0.08 | 0.00 | 84 | 1000.7 |
| 20260506072230 | 25 | 78 | 0.0 | 8.0 | 0.00 | 0.08 | 0.00 | 84 | 1000.7 |
| 20260506071734 | 25 | 78 | 3.2 | 9.7 | 0.00 | 0.08 | 0.00 | 84 | 1000.8 |
| 20260506071231 | 25 | 78 | 3.2 | 9.7 | 0.00 | 0.08 | 0.00 | 84 | 1000.7 |
| 20260506070735 | 25 | 79 | 3.2 | 11.3 | 0.00 | 0.08 | 0.00 | 84 | 1000.7 |
| 20260506070231 | 25 | 79 | 6.4 | 11.3 | 0.00 | 0.08 | 0.00 | 84 | 1000.7 |
| 20260506062231 | 25 | 82 | 3.2 | 8.0 | 0.00 | 0.08 | 0.00 | 84 | 1000.5 |
| 20260506061732 | 25 | 82 | 1.6 | 4.8 | 0.00 | 0.08 | 0.00 | 84 | 1000.5 |
| 20260506061230 | 25 | 82 | 0.0 | 3.2 | 0.00 | 0.08 | 0.00 | 84 | 1000.5 |
| 20260506060733 | 25 | 82 | 0.0 | 6.4 | 0.00 | 0.08 | 0.00 | 84 | 1000.6 |
| 20260506060229 | 25 | 82 | 0.0 | 6.4 | 0.00 | 0.08 | 0.00 | 84 | 1000.7 |